Location: *
(52.2090°N, 4.1550°W)
Time: 13:07:44
(UTC+00:00)

Cosmos 1634 Rocket - Pass Details

Date: 19 July 2019
Orbit: 959 x 993 km, 82.9° (Epoch: 22 August)

Event Time Altitude Azimuth Distance (km) Brightness Sun altitude
Exits shadow 22:27:19 - 193° (SSW) 2,955 6.1 -12.8°
Reaches altitude 10° 22:27:55 10° 194° (SSW) 2,729 5.9 -12.8°
Maximum altitude 22:34:11 79° 281° (W) 1,000 4.1 -13.3°
Drops below altitude 10° 22:40:27 10° 9° (N) 2,724 7.2 -13.7°
Sets 22:42:58 0° 10° (N) 3,671 8.0 -13.8°
